Location: Valdosta
(30.8330°N, 83.2790°W)
Time: 23:47:49
(UTC-04:00)

Amateur Radio Satellites - All Passes

Search period start: 01 July 2016 23:17
Search period end: 02 July 2016 23:17
Location: Valdosta, 30.8330°N, 83.2790°W

Satellite Date Start Highest point End Downlink Frequencies (MHz)
Time Altitude Azimuth
AISAT 01 Jul 23:23:38 23:24:43 11° 67° (ENE) 23:25:47 437.250
RS-15 01 Jul 23:25:15 23:35:44 35° 256° (WSW) 23:46:03 29.354- 29.394
ESTCUBE 1 01 Jul 23:31:47 23:35:23 23° 71° (ENE) 23:38:58 437.505/2401.250
QB50P2 01 Jul 23:51:50 23:52:53 11° 93° (E) 23:53:54 145.880/145.840
POLYITAN 1 01 Jul 23:54:15 23:55:32 11° 94° (E) 23:56:48 437.675
TIGRISAT 01 Jul 23:54:50 23:59:33 89° 100° (E) 00:04:15 435.000
50 SAT 01 Jul 23:54:58 23:57:59 24° 73° (ENE) 00:01:02 437.505
CUBEBUG 1 01 Jul 23:57:50 00:01:36 30° 73° (ENE) 00:05:23 437.445
Cosmos 2491 01 Jul 23:59:01 00:05:32 24° 84° (E) 00:12:00 435.465 / 435.565
UNISAT 6 02 Jul 00:01:16 00:05:57 72° 284° (WNW) 00:10:37 437.425
SO-50 02 Jul 00:06:36 00:09:24 16° 51° (NE) 00:12:07 436.795
VELOX 1 02 Jul 00:15:12 00:19:23 44° 74° (ENE) 00:23:35 145.980
HUMSAT D 02 Jul 00:20:11 00:22:01 13° 267° (W) 00:23:51 437.325/437.525
BUGSAT 1 02 Jul 00:29:45 00:30:10 10° 94° (E) 00:30:35 437.445
SPROUT 02 Jul 00:31:21 00:34:54 26° 72° (ENE) 00:38:26 437.525
UKube-1 02 Jul 00:36:22 00:40:30 47° 74° (ENE) 00:44:38 .
ANTELSAT 02 Jul 00:41:37 00:45:28 26° 289° (WNW) 00:49:19 437.575/2403.000
YUBILEINY 02 Jul 00:48:56 00:57:50 86° 85° (E) 01:06:41 435.215
AISAT 02 Jul 00:56:25 01:00:42 51° 260° (W) 01:04:59 437.250
NANOSAT C BR1 02 Jul 01:02:30 01:06:46 82° 101° (E) 01:11:01 145.865
DX 1 02 Jul 01:03:10 01:07:27 59° 259° (W) 01:11:44 434.975-435.025
JAS-2 02 Jul 01:03:31 01:06:31 15° 93° (E) 01:09:28 435.910
QB50P1 02 Jul 01:07:41 01:11:58 81° 283° (WNW) 01:16:14 145.935-145.965
ESTCUBE 1 02 Jul 01:08:22 01:12:02 24° 263° (W) 01:15:44 437.505/2401.250
POPSAT HIP 1 02 Jul 01:11:17 01:15:32 74° 284° (WNW) 01:19:48 437.405
DUCHIFAT 1 02 Jul 01:21:18 01:25:29 61° 284° (WNW) 01:29:41 145.980
BEESAT 3 02 Jul 01:24:21 01:27:27 23° 111° (ESE) 01:30:33 437.485
QB50P2 02 Jul 01:24:45 01:28:50 45° 285° (WNW) 01:32:55 145.880/145.840
POLYITAN 1 02 Jul 01:27:23 01:31:28 44° 286° (WNW) 01:35:32 437.675
50 SAT 02 Jul 01:29:25 01:31:36 15° 265° (W) 01:33:48 437.505
Cosmos 2504 02 Jul 01:32:26 01:40:58 52° 80° (E) 01:48:58 435.465 / 435.565
CUBEBUG 1 02 Jul 01:34:58 01:37:52 17° 265° (W) 01:40:45 437.445
PCSat 02 Jul 01:36:02 01:41:17 53° 111° (ESE) 01:46:33 145.827
TISAT 1 02 Jul 01:37:34 01:41:23 37° 74° (ENE) 01:45:14 437.305
SO-50 02 Jul 01:45:43 01:50:05 45° 247° (WSW) 01:54:20 436.795
O/OREOS (USA 219) 02 Jul 01:51:18 01:54:43 22° 101° (ESE) 01:58:07 437.305
Cosmos 2491 02 Jul 01:53:04 02:01:38 58° 279° (W) 02:10:14 435.465 / 435.565
VELOX 1 02 Jul 01:54:26 01:56:00 12° 266° (W) 01:57:33 145.980
Oscar 19 02 Jul 01:54:33 01:57:46 17° 95° (E) 02:00:59 437.125/150
BUGSAT 1 02 Jul 02:01:43 02:05:40 45° 285° (WNW) 02:09:39 437.445
SPROUT 02 Jul 02:07:48 02:10:46 18° 264° (W) 02:13:45 437.525
BEESAT 2 02 Jul 02:09:01 02:12:44 42° 114° (ESE) 02:16:30 435.950
SWISSCUBE 02 Jul 02:15:57 02:19:31 21° 69° (ENE) 02:23:06 437.505
UKube-1 02 Jul 02:16:01 02:16:42 10° 266° (W) 02:17:24 .
BEESAT 02 Jul 02:39:55 02:44:14 35° 72° (ENE) 02:48:33 436.000
Gurwin Techsat 1B 02 Jul 02:41:06 02:45:05 21° 96° (E) 02:49:03 435.225
ITUPSAT 1 02 Jul 02:43:25 02:47:49 37° 72° (ENE) 02:52:14 437.325
JAS-2 02 Jul 02:46:49 02:51:53 43° 288° (WNW) 02:56:44 435.910
YUBILEINY 02 Jul 02:49:11 02:53:23 14° 280° (W) 02:57:36 435.215
BEESAT 3 02 Jul 03:02:02 03:05:01 20° 304° (NW) 03:08:01 437.485
TISAT 1 02 Jul 03:15:25 03:17:08 12° 266° (W) 03:18:51 437.305
PCSat 02 Jul 03:21:27 03:24:58 17° 306° (NW) 03:28:29 145.827
AIST 2 02 Jul 03:25:18 03:26:51 12° 108° (ESE) 03:28:24 435.215
Cosmos 2504 02 Jul 03:26:48 03:33:43 27° 276° (W) 03:40:22 435.465 / 435.565
O/OREOS (USA 219) 02 Jul 03:30:12 03:33:55 25° 294° (WNW) 03:37:37 437.305
Oscar 19 02 Jul 03:32:22 03:37:11 43° 287° (WNW) 03:42:01 437.125/150
AO-7 02 Jul 03:38:54 03:42:30 13° 93° (E) 03:46:06 29.400- 29.500
BEESAT 2 02 Jul 03:48:59 03:50:45 13° 308° (NW) 03:52:31 435.950
SWISSCUBE 02 Jul 03:52:52 03:57:04 30° 262° (W) 04:01:18 437.505
ITAMSAT 1 02 Jul 04:03:08 04:08:11 48° 100° (E) 04:13:11 435.822/435.867
KKS-1 02 Jul 04:04:19 04:08:07 29° 72° (ENE) 04:11:57 437.445
BEESAT 02 Jul 04:18:48 04:22:02 18° 265° (W) 04:25:17 436.000
Gurwin Techsat 1B 02 Jul 04:20:13 04:25:02 36° 289° (WNW) 04:29:50 435.225
MOZHAYETS 4 02 Jul 04:22:01 04:26:23 43° 74° (ENE) 04:30:47
ITUPSAT 1 02 Jul 04:22:37 04:25:42 17° 265° (W) 04:28:48 437.325
AIST 1 02 Jul 04:25:36 04:29:34 37° 80° (E) 04:33:32
STARS 02 Jul 04:26:09 04:29:41 25° 71° (ENE) 04:33:14 437.465
GONETS M04 02 Jul 04:52:55 04:58:39 19° 71° (ENE) 05:04:23
PHONESAT 2.4 02 Jul 04:57:20 05:00:19 54° 148° (SSE) 05:03:20 2401.200-2431.200
AIST 2 02 Jul 05:01:01 05:04:54 41° 301° (WNW) 05:08:49 435.215
HORYU 2 02 Jul 05:26:40 05:29:29 16° 95° (E) 05:32:17 437.375
AO-7 02 Jul 05:27:36 05:36:01 89° 114° (ESE) 05:44:22 29.400- 29.500
AO-85 02 Jul 05:39:05 05:40:46 12° 49° (NE) 05:42:25 145.980
KKS-1 02 Jul 05:41:38 05:44:39 18° 264° (W) 05:47:42 437.445
ITAMSAT 1 02 Jul 05:44:03 05:47:11 16° 294° (WNW) 05:50:20 435.822/435.867
Cosmos 2499 02 Jul 05:57:39 06:05:21 35° 76° (ENE) 06:12:31 435.465 / 435.565
CUBESAT XI-V 02 Jul 06:00:01 06:04:37 58° 76° (ENE) 06:09:13 437.345
MOZHAYETS 4 02 Jul 06:01:30 06:03:41 13° 267° (W) 06:05:54
STARS 02 Jul 06:02:39 06:05:56 21° 263° (W) 06:09:14 437.465
AIST 1 02 Jul 06:05:13 06:06:44 12° 273° (W) 06:08:15
CUSAT 1 02 Jul 06:23:15 06:27:25 16° 89° (E) 06:31:16 437.405
PHONESAT 2.4 02 Jul 06:34:29 06:37:03 24° 342° (NNW) 06:39:37 2401.200-2431.200
ISS 02 Jul 06:37:53 06:40:24 21° 128° (SE) 06:42:56 145.825
Cubesat XI-IV 02 Jul 06:40:47 06:43:40 15° 94° (E) 06:46:32 437.490
GONETS M04 02 Jul 06:47:26 06:56:08 73° 267° (W) 07:04:51
HORYU 2 02 Jul 07:02:00 07:06:04 34° 287° (WNW) 07:10:06 437.375
NOAA 18 02 Jul 07:05:57 07:10:48 30° 98° (E) 07:15:37 137.9125
CUTE-I 02 Jul 07:12:12 07:17:00 32° 98° (E) 07:21:44 437.470
AO-85 02 Jul 07:17:26 07:21:37 51° 246° (WSW) 07:25:28 145.980
STRAND 1 02 Jul 07:19:48 07:24:01 26° 70° (ENE) 07:28:15 437.568
DANDE 02 Jul 07:19:55 07:26:28 26° 88° (E) 07:32:41 436.750
BRITE-PL 02 Jul 07:20:27 07:24:34 57° 101° (E) 07:28:50 437.365/2234.400
AO-7 02 Jul 07:22:55 07:27:39 17° 303° (WNW) 07:32:23 29.400- 29.500
NOAA 15 02 Jul 07:26:54 07:32:07 67° 102° (ESE) 07:37:18 137.62
GOMX 1 02 Jul 07:33:37 07:37:33 33° 99° (E) 07:41:42 467.674
CUBESAT XI-V 02 Jul 07:42:08 07:42:14 10° 268° (W) 07:42:21 437.345
LilacSat-2 02 Jul 07:43:27 07:47:20 78° 101° (E) 07:51:13 437.200
Cosmos 2499 02 Jul 07:50:39 07:58:21 39° 273° (W) 08:05:34 435.465 / 435.565
CUSAT 1 02 Jul 08:01:15 08:09:06 77° 278° (W) 08:15:42 437.405
PHONESAT 2.4 02 Jul 08:12:42 08:14:19 13° 359° (N) 08:15:57 2401.200-2431.200
DOVE 4 02 Jul 08:13:18 08:17:35 42° 100° (E) 08:22:07 437.250
ISS 02 Jul 08:14:01 08:16:43 24° 321° (NW) 08:19:26 145.825
Cubesat XI-IV 02 Jul 08:18:44 08:23:57 53° 286° (WNW) 08:29:08 437.490
HO-68 02 Jul 08:23:13 08:28:09 20° 95° (E) 08:33:04 435.675
CANX-2 02 Jul 08:26:43 08:28:48 13° 94° (E) 08:30:52 2200.000
CINEMA 3 02 Jul 08:39:56 08:43:43 23° 97° (E) 08:47:36 145.822/145.860
SEEDS 02 Jul 08:42:45 08:44:25 12° 93° (E) 08:46:05 437.485
CUTE 1.7 + AOD 2 02 Jul 08:44:58 08:48:06 20° 95° (E) 08:51:12 437.475
NOAA 18 02 Jul 08:46:38 08:51:17 28° 291° (WNW) 08:55:55 137.9125
PRISM 02 Jul 08:51:30 08:55:09 30° 72° (ENE) 08:58:47 437.425
CUTE-I 02 Jul 08:52:32 08:56:48 25° 291° (WNW) 09:01:04 437.470
STRAND 1 02 Jul 08:58:41 09:03:02 28° 263° (W) 09:07:25 437.568
DANDE 02 Jul 09:00:37 09:08:52 58° 279° (W) 09:16:32 436.750
NOAA 15 02 Jul 09:09:24 09:11:15 12° 296° (WNW) 09:13:06 137.62
AAUSAT CUBESAT 2 02 Jul 09:09:42 09:11:49 14° 94° (E) 09:13:54 437.432
GOMX 1 02 Jul 09:12:44 09:15:24 16° 289° (WNW) 09:18:09 467.674
CUBEBUG 2 02 Jul 09:45:50 09:50:12 37° 98° (E) 09:54:35 437.445
COMPASS 1 02 Jul 09:46:11 09:50:18 55° 100° (E) 09:54:21 437.405
PHONESAT 2.4 02 Jul 09:49:15 09:51:39 20° 16° (NNE) 09:54:02 2401.200-2431.200
CUSAT 1 02 Jul 09:51:00 09:51:29 10° 288° (WNW) 09:51:57 437.405
DOVE 4 02 Jul 09:52:36 09:54:58 14° 290° (WNW) 09:57:22 437.250
ZACube-1 02 Jul 09:54:55 09:58:12 19° 95° (E) 10:01:30 437.345
AUBIESAT-1 02 Jul 09:56:03 09:58:53 17° 101° (E) 10:01:48 437.475
Oscar 11 02 Jul 09:56:44 09:59:57 20° 96° (E) 10:03:09 145.826/435.025
CANX-2 02 Jul 10:00:49 10:04:44 36° 286° (WNW) 10:08:37 2200.000
ANTELSAT 02 Jul 10:01:36 10:02:17 10° 66° (ENE) 10:02:59 437.575/2403.000
HO-68 02 Jul 10:09:06 10:16:10 61° 289° (WNW) 10:23:13 435.675
FUNcube-1 02 Jul 10:09:40 10:13:33 27° 97° (E) 10:17:24 145.935
SEEDS 02 Jul 10:16:18 10:20:14 39° 286° (WNW) 10:24:07 437.485
CINEMA 3 02 Jul 10:16:47 10:20:43 27° 288° (WNW) 10:24:47 145.822/145.860
CUTE 1.7 + AOD 2 02 Jul 10:20:21 10:23:50 25° 288° (WNW) 10:27:17 437.475
DELFI C3 02 Jul 10:21:41 10:24:00 15° 95° (E) 10:26:19 145.870
UWE-3 02 Jul 10:24:15 10:28:53 71° 101° (ESE) 10:33:32 435.000/436.395/437.385
PRISM 02 Jul 10:27:59 10:30:27 15° 265° (W) 10:32:54 437.425
PCSat 02 Jul 10:31:01 10:34:00 15° 53° (NE) 10:36:57 145.827
M-CUBED/EXP-1 PRIME 02 Jul 10:37:46 10:41:55 73° 105° (ESE) 10:46:22 437.505
AAUSAT CUBESAT 2 02 Jul 10:43:36 10:47:20 33° 286° (WNW) 10:51:02 437.432
TIGRISAT 02 Jul 10:48:19 10:52:16 37° 73° (ENE) 10:56:19 435.000
UNISAT 6 02 Jul 10:54:41 10:58:48 48° 75° (ENE) 11:03:04 437.425
BEESAT 3 02 Jul 11:23:18 11:27:00 37° 59° (ENE) 11:30:40 437.485
CUBEBUG 2 02 Jul 11:23:26 11:26:28 17° 291° (WNW) 11:29:32 437.445
PHONESAT 2.4 02 Jul 11:25:25 11:28:28 78° 210° (SSW) 11:31:32 2401.200-2431.200
RS-15 02 Jul 11:27:18 11:38:18 65° 111° (ESE) 11:49:56 29.354- 29.394
AUBIESAT-1 02 Jul 11:29:34 11:33:16 32° 291° (WNW) 11:37:10 437.475
ZACube-1 02 Jul 11:30:27 11:34:26 30° 287° (WNW) 11:38:25 437.345
Oscar 11 02 Jul 11:32:24 11:35:59 25° 288° (WNW) 11:39:32 145.826/435.025
ANTELSAT 02 Jul 11:34:16 11:38:27 52° 260° (W) 11:42:45 437.575/2403.000
FUNcube-1 02 Jul 11:46:05 11:49:34 22° 289° (WNW) 11:53:03 145.935
NANOSAT C BR1 02 Jul 11:49:37 11:53:10 28° 72° (ENE) 11:56:45 145.865
YUBILEINY 02 Jul 11:50:03 11:55:28 18° 82° (E) 12:00:55 435.215
QB50P1 02 Jul 11:54:50 11:58:38 34° 73° (ENE) 12:02:27 145.935-145.965
DELFI C3 02 Jul 11:55:28 11:58:51 27° 287° (WNW) 12:02:12 145.870
POPSAT HIP 1 02 Jul 11:58:24 12:02:15 37° 74° (ENE) 12:06:08 437.405
HUMSAT D 02 Jul 12:06:24 12:10:35 52° 285° (WNW) 12:14:44 437.325/437.525
O/OREOS (USA 219) 02 Jul 12:06:35 12:09:39 18° 63° (ENE) 12:12:43 437.305
DUCHIFAT 1 02 Jul 12:07:38 12:11:35 44° 74° (ENE) 12:15:33 145.980
BEESAT 2 02 Jul 12:09:24 12:13:23 72° 63° (ENE) 12:17:20 435.950
Cosmos 2491 02 Jul 12:10:06 12:18:38 56° 81° (E) 12:27:07 435.465 / 435.565
QB50P2 02 Jul 12:11:32 12:15:39 62° 76° (ENE) 12:19:49 145.880/145.840
VELOX 1 02 Jul 12:12:26 12:14:29 13° 94° (E) 12:16:30 145.980
PCSat 02 Jul 12:12:26 12:17:48 64° 249° (WSW) 12:23:08 145.827
POLYITAN 1 02 Jul 12:14:10 12:18:17 64° 76° (ENE) 12:22:27 437.675
JUGNU 02 Jul 12:21:39 12:23:49 12° 161° (SSE) 12:26:00 437.505
TIGRISAT 02 Jul 12:27:00 12:29:04 13° 267° (W) 12:31:10 435.000
UKube-1 02 Jul 12:30:52 12:32:36 12° 94° (E) 12:34:19 .
BUGSAT 1 02 Jul 12:45:48 12:49:43 54° 75° (ENE) 12:53:38 437.445
JAS-2 02 Jul 12:50:41 12:57:49 45° 72° (ENE) 13:04:21 435.910
AISAT 02 Jul 12:51:54 12:56:06 43° 100° (E) 13:00:18 437.250
DX 1 02 Jul 12:56:53 13:00:50 34° 99° (E) 13:04:48 434.975-435.025
50 SAT 02 Jul 13:02:03 13:05:42 66° 101° (E) 13:09:18 437.505
BEESAT 3 02 Jul 13:02:43 13:04:17 12° 252° (WSW) 13:05:50 437.485
ESTCUBE 1 02 Jul 13:05:17 13:09:46 75° 283° (WNW) 13:14:14 437.505/2401.250
Oscar 19 02 Jul 13:06:53 13:09:40 15° 66° (ENE) 13:12:27 437.125/150
NANOSAT C BR1 02 Jul 13:26:10 13:28:52 17° 265° (W) 13:31:35 145.865
CUBEBUG 1 02 Jul 13:27:15 13:31:31 61° 284° (WNW) 13:35:47 437.445
AIST 2 02 Jul 13:27:41 13:31:02 23° 56° (NE) 13:34:22 435.215
QB50P1 02 Jul 13:32:22 13:34:28 13° 266° (W) 13:36:34 145.935-145.965
POPSAT HIP 1 02 Jul 13:36:23 13:38:08 12° 266° (W) 13:39:53 437.405
RS-15 02 Jul 13:41:27 13:51:26 34° 312° (NW) 14:01:57 29.354- 29.394
YUBILEINY 02 Jul 13:42:37 13:51:16 71° 277° (W) 14:00:02 435.215
O/OREOS (USA 219) 02 Jul 13:45:05 13:49:02 31° 257° (WSW) 13:53:01 437.305
DUCHIFAT 1 02 Jul 13:46:54 13:47:26 10° 267° (W) 13:47:58 145.980
VELOX 1 02 Jul 13:46:56 13:51:02 40° 287° (WNW) 13:55:08 145.980
Gurwin Techsat 1B 02 Jul 13:57:12 14:01:02 21° 68° (ENE) 14:04:53 435.225
SPROUT 02 Jul 13:57:36 14:01:53 72° 282° (WNW) 14:06:09 437.525
Cosmos 2504 02 Jul 14:03:03 14:10:42 49° 89° (E) 14:18:52 435.465 / 435.565
UKube-1 02 Jul 14:04:42 14:08:45 41° 286° (WNW) 14:12:47 .
JUGNU 02 Jul 14:07:40 14:12:15 23° 170° (S) 14:16:50 437.505
Cosmos 2491 02 Jul 14:08:13 14:14:47 25° 276° (W) 14:21:22 435.465 / 435.565
SO-50 02 Jul 14:15:25 14:18:34 17° 109° (ESE) 14:21:45 436.795
AISAT 02 Jul 14:30:13 14:32:08 13° 293° (WNW) 14:34:04 437.250
AO-7 02 Jul 14:33:38 14:36:58 13° 54° (NE) 14:40:18 29.400- 29.500
DX 1 02 Jul 14:34:10 14:36:42 15° 292° (WNW) 14:39:14 434.975-435.025
JAS-2 02 Jul 14:36:15 14:42:44 30° 263° (W) 14:48:49 435.910
Oscar 19 02 Jul 14:43:30 14:48:29 51° 259° (W) 14:53:30 437.125/150
ISS 02 Jul 14:45:36 14:48:20 24° 39° (NE) 14:51:03 145.825
BEESAT 02 Jul 14:46:59 14:49:24 14° 94° (E) 14:51:48 436.000
ITUPSAT 1 02 Jul 14:50:42 14:53:25 15° 94° (E) 14:56:08 437.325
TISAT 1 02 Jul 15:01:56 15:06:02 53° 285° (WNW) 15:10:08 437.305
AIST 2 02 Jul 15:06:06 15:09:23 23° 249° (WSW) 15:12:40 435.215
ITAMSAT 1 02 Jul 15:15:41 15:20:34 42° 72° (ENE) 15:25:28 435.822/435.867
SRMSAT 02 Jul 15:31:07 15:35:03 18° 165° (SSE) 15:38:59 437.500
Gurwin Techsat 1B 02 Jul 15:35:44 15:40:39 38° 261° (W) 15:45:36 435.225
SO-50 02 Jul 15:54:05 15:58:42 42° 302° (WNW) 16:03:21 436.795
JUGNU 02 Jul 15:55:42 16:00:45 29° 180° (S) 16:05:50 437.505
Cosmos 2504 02 Jul 15:57:28 16:04:16 29° 286° (WNW) 16:11:29 435.465 / 435.565
SWISSCUBE 02 Jul 15:57:49 16:02:36 78° 284° (WNW) 16:07:21 437.505
AO-7 02 Jul 16:20:03 16:28:20 76° 71° (ENE) 16:36:42 29.400- 29.500
ISS 02 Jul 16:22:08 16:24:39 21° 232° (SW) 16:27:10 145.825
BEESAT 02 Jul 16:22:46 16:27:19 45° 287° (WNW) 16:31:51 436.000
MOZHAYETS 4 02 Jul 16:23:44 16:26:33 16° 94° (E) 16:29:22
ITUPSAT 1 02 Jul 16:26:51 16:31:22 41° 287° (WNW) 16:35:50 437.325
AIST 1 02 Jul 16:49:19 16:53:02 29° 91° (E) 16:56:45
ITAMSAT 1 02 Jul 16:56:44 17:00:08 18° 265° (W) 17:03:33 435.822/435.867
SRMSAT 02 Jul 17:18:44 17:23:41 27° 175° (S) 17:28:39 437.500
KKS-1 02 Jul 17:36:18 17:40:43 62° 285° (WNW) 17:45:06 437.445
JUGNU 02 Jul 17:44:38 17:49:17 23° 190° (S) 17:53:56 437.505
GONETS M04 02 Jul 17:47:00 17:53:47 26° 85° (E) 18:00:32
HORYU 2 02 Jul 17:53:54 17:58:19 75° 258° (WSW) 18:02:46 437.375
STARS 02 Jul 17:56:04 18:00:29 77° 283° (WNW) 18:04:54 437.465
Cubesat XI-IV 02 Jul 17:57:53 18:00:49 15° 66° (ENE) 18:03:45 437.490
MOZHAYETS 4 02 Jul 17:59:33 18:03:46 36° 287° (WNW) 18:07:58
CUBESAT XI-V 02 Jul 18:02:51 18:06:23 22° 96° (E) 18:09:53 437.345
AO-7 02 Jul 18:16:31 18:21:38 18° 265° (W) 18:26:50 29.400- 29.500
LilacSat-2 02 Jul 18:21:14 18:23:43 17° 71° (ENE) 18:26:12 437.200
BRITE-PL 02 Jul 18:25:43 18:30:22 39° 75° (ENE) 18:34:40 437.365/2234.400
RS-15 02 Jul 18:25:44 18:30:49 13° 25° (NNE) 18:35:53 29.354- 29.394
Cosmos 2499 02 Jul 18:26:36 18:33:44 33° 85° (E) 18:41:12 435.465 / 435.565
NOAA 18 02 Jul 18:26:54 18:31:47 34° 70° (ENE) 18:36:41 137.9125
AIST 1 02 Jul 18:27:58 18:30:37 16° 284° (WNW) 18:33:16
CUTE-I 02 Jul 18:28:45 18:33:25 31° 70° (ENE) 18:38:06 437.470
GOMX 1 02 Jul 18:37:28 18:40:45 20° 72° (ENE) 18:43:54 467.674
NOAA 15 02 Jul 18:41:24 18:46:37 62° 74° (ENE) 18:51:49 137.62
CUSAT 1 02 Jul 18:45:02 18:47:37 28° 78° (ENE) 18:49:56 437.405
SRMSAT 02 Jul 19:07:26 19:12:23 27° 185° (S) 19:17:19 437.500
DOVE 4 02 Jul 19:14:41 19:17:54 21° 72° (ENE) 19:21:04 437.250
Cubesat XI-IV 02 Jul 19:35:08 19:40:21 55° 259° (W) 19:45:36 437.490
JUGNU 02 Jul 19:35:16 19:37:43 13° 198° (SSW) 19:40:11 437.505
STRAND 1 02 Jul 19:37:04 19:39:34 14° 94° (E) 19:42:03 437.568
CUBESAT XI-V 02 Jul 19:39:50 19:43:40 27° 288° (WNW) 19:47:29 437.345
GONETS M04 02 Jul 19:41:35 19:50:00 53° 280° (W) 19:58:25
AO-85 02 Jul 19:46:29 19:49:59 18° 108° (ESE) 19:53:28 145.980
DANDE 02 Jul 19:49:57 19:53:50 89° 112° (ESE) 19:56:51 436.750
LilacSat-2 02 Jul 19:54:48 19:57:48 22° 264° (W) 20:00:49 437.200
BRITE-PL 02 Jul 20:05:42 20:08:50 16° 264° (W) 20:11:49 437.365/2234.400
NOAA 18 02 Jul 20:08:05 20:12:24 24° 263° (W) 20:16:45 137.9125
CUTE-I 02 Jul 20:09:04 20:13:22 25° 263° (W) 20:17:43 437.470
GOMX 1 02 Jul 20:14:47 20:18:40 27° 262° (W) 20:22:23 467.674
Cosmos 2499 02 Jul 20:18:41 20:26:28 44° 282° (WNW) 20:34:45 435.465 / 435.565
NOAA 15 02 Jul 20:24:47 20:26:40 12° 267° (W) 20:28:34 137.62
HO-68 02 Jul 20:31:07 20:38:05 59° 71° (ENE) 20:45:06 435.675
COMPASS 1 02 Jul 20:32:24 20:35:20 19° 70° (ENE) 20:38:16 437.405
RS-15 02 Jul 20:35:53 20:47:38 47° 54° (NE) 20:59:11 29.354- 29.394
CUBEBUG 2 02 Jul 20:40:19 20:42:39 15° 69° (ENE) 20:45:00 437.445
CANX-2 02 Jul 20:47:20 20:51:36 75° 77° (ENE) 20:55:55 2200.000
DOVE 4 02 Jul 20:52:07 20:55:29 22° 263° (W) 20:58:47 437.250
SRMSAT 02 Jul 20:57:08 21:01:00 18° 195° (SSW) 21:04:52 437.500
SEEDS 02 Jul 21:01:51 21:06:04 67° 76° (ENE) 21:10:17 437.485
FUNcube-1 02 Jul 21:03:09 21:03:31 10° 67° (ENE) 21:03:52 145.935
CUTE 1.7 + AOD 2 02 Jul 21:06:25 21:10:41 73° 259° (W) 21:14:59 437.475
CINEMA 3 02 Jul 21:12:47 21:16:47 50° 261° (W) 21:20:49 145.822/145.860
STRAND 1 02 Jul 21:13:58 21:18:57 52° 286° (WNW) 21:23:54 437.568
UWE-3 02 Jul 21:16:25 21:19:57 27° 72° (ENE) 21:23:33 435.000/436.395/437.385
M-CUBED/EXP-1 PRIME 02 Jul 21:20:39 21:23:29 28° 69° (ENE) 21:26:20 437.505
AO-85 02 Jul 21:24:50 21:30:07 50° 300° (WNW) 21:35:17 145.980
AAUSAT CUBESAT 2 02 Jul 21:27:33 21:31:43 74° 77° (ENE) 21:35:55 437.432
COMPASS 1 02 Jul 22:07:06 22:10:39 26° 263° (W) 22:14:13 437.405
AUBIESAT-1 02 Jul 22:11:06 22:14:19 54° 255° (WSW) 22:17:35 437.475
PRISM 02 Jul 22:13:00 22:17:03 73° 284° (WNW) 22:21:05 437.425
CUBEBUG 2 02 Jul 22:15:10 22:18:55 33° 262° (W) 22:22:46 437.445
ZACube-1 02 Jul 22:20:05 22:24:16 74° 258° (WSW) 22:28:35 437.345
Oscar 11 02 Jul 22:20:38 22:24:56 67° 259° (W) 22:29:16 145.826/435.025
HO-68 02 Jul 22:21:04 22:26:04 20° 265° (W) 22:31:08 435.675
DELFI C3 02 Jul 22:34:59 22:39:00 75° 77° (ENE) 22:43:02 145.870
FUNcube-1 02 Jul 22:35:08 22:39:12 50° 260° (W) 22:43:23 145.935
TIGRISAT 02 Jul 22:46:35 22:48:54 14° 94° (E) 22:51:12 435.000
RS-15 02 Jul 22:48:34 23:00:02 47° 253° (WSW) 23:11:17 29.354- 29.394
HUMSAT D 02 Jul 22:51:51 22:55:52 49° 75° (ENE) 22:59:58 437.325/437.525
UNISAT 6 02 Jul 22:52:38 22:55:45 17° 95° (E) 22:58:51 437.425
UWE-3 02 Jul 22:53:31 22:56:22 18° 265° (W) 22:59:17 435.000/436.395/437.385
